This is the latest recevied weather packets stored in our database for station/object DG5TS-10. If no packets are shown the sender has not sent any weather packets the latest 1 day(s).
| Time | Temp. | Humidity | Pressure | Rain* | Wind** | Luminosity | Snow |
|---|---|---|---|---|---|---|---|
| 1777761610 | 21.11° C | 30% | 1015.3 hPa | - | - | - | - |
| 1777760710 | 21.67° C | 29% | 1015.4 hPa | - | - | - | - |
| 1777759810 | 21.67° C | 29% | 1015.3 hPa | - | - | - | - |
| 1777758909 | 22.22° C | 28% | 1015.5 hPa | - | - | - | - |
| 1777758009 | 22.22° C | 28% | 1015.5 hPa | - | - | - | - |
| 1777757109 | 22.78° C | 28% | 1015.6 hPa | - | - | - | - |
| 1777756209 | 22.78° C | 27% | 1015.7 hPa | - | - | - | - |
| 1777755309 | 23.33° C | 27% | 1015.7 hPa | - | - | - | - |
| 1777754409 | 23.33° C | 26% | 1015.8 hPa | - | - | - | - |
| 1777753509 | 23.89° C | 26% | 1015.7 hPa | - | - | - | - |
| 1777752609 | 23.89° C | 26% | 1015.8 hPa | - | - | - | - |
| 1777751709 | 24.44° C | 25% | 1015.9 hPa | - | - | - | - |
| 1777750809 | 24.44° C | 25% | 1015.9 hPa | - | - | - | - |
| 1777749908 | 25° C | 24% | 1015.9 hPa | - | - | - | - |
| 1777749008 | 25° C | 23% | 1015.9 hPa | - | - | - | - |
| 1777748108 | 25.56° C | 23% | 1015.8 hPa | - | - | - | - |
| 1777747208 | 26.11° C | 23% | 1015.8 hPa | - | - | - | - |
| 1777746308 | 26.11° C | 22% | 1015.8 hPa | - | - | - | - |
| 1777745408 | 26.67° C | 22% | 1015.7 hPa | - | - | - | - |
| 1777744506 | 27.78° C | 20% | 1015.8 hPa | - | - | - | - |
| 1777743606 | 28.33° C | 20% | 1015.8 hPa | - | - | - | - |
| 1777742706 | 29.44° C | 19% | 1015.9 hPa | - | - | - | - |
| 1777741806 | 30.56° C | 16% | 1016.1 hPa | - | - | - | - |
| 1777740906 | 33.33° C | 15% | 1016.1 hPa | - | - | - | - |
| 1777740006 | 32.78° C | 15% | 1016.2 hPa | - | - | - | - |
* Rain since midnight (hover to see other rain measurements)
** Current wind speed in m/s (hover to see current wind gust speed)